sat.trackr.live / text

‹ back to catalog

STARLINK-34853

NORAD 65892 · 2025-224L

PAYLOAD ACTIVE UNKNOWN

§ Identity

Operator
Country
US
Launch date
2025-10-07
Launch site
AFETR
Launch vehicle
Mass (kg)
RCS (m²)

Purposes: comms

External: N2YO · Heavens-Above · Gunter

§ Orbital elements

Epoch: 2026-05-25T03:31:35.465664Z

Period
93.84 min
Inclination
53.1579°
Eccentricity
0.0001172
Mean motion
15.34513133 rev/d
Perigee alt
461.6 km
Apogee alt
463.2 km
Semi-major
6,840.5 km
B*
2.1179e-3
RAAN
15.2721°
Arg perigee
75.1043°
Mean anomaly
285.0090°
Rev number
3,652

§ Raw data

STARLINK-348531 65892U 25224L   26145.14693826  .00072130  00000+0  21179-2 0  99962 65892  53.1579  15.2721 0001172  75.1043 285.0090 15.34513133 36520

JSON: /api/v1/satellites/65892 · /tle

For live sub-satellite position, see the globe view (requires WebGL).

§ Visibility from observer

Set your observer location to see the next 7 days of passes ≥ 10°. The values pass through the URL so the page stays shareable.

No JS? Fill the form by hand. The geolocation button needs JavaScript.